STARLINK-37009

Last updated on Sun Apr 12 2026 00:02:07 GMT+0000 (Coordinated Universal Time)

1 68208U 26053B 26101.50002315 -.01895881 00000+0 -27073-1 0 9997 2 68208 97.2931 337.3949 0001765 79.1508 317.3890 15.59497231 5286

Satellite not in orbit

STARLINK-37009